Weather observations for the past three days for
Norfolk, Naval Air Station
Imperial (Metric)
Date Time (edt) Wind (mph) Vis. (mi.) Weather Sky Cond. Temperature (ºF) Relative Humidity Wind Chill (°F) Heat Index (°F) Pressure Precipitation (in)
Air Dwpt 6 hour altimeter (in) sea level (mb) 1 hr 3 hr 6 hr
Max. Min.
19 10:59 E 9 8.00 Mostly Cloudy FEW015 SCT090 BKN260 80.1 71.1 74% 84 30.11 1019.7
19 09:59 E 9 7.00 Mostly Cloudy FEW010 SCT090 BKN230 78.1 72 82% 80 30.1 1019.1
19 08:59 E 8 8.00 Mostly Cloudy SCT085 BKN230 79 73 82% 82 30.09 1018.9
19 07:59 E 7 8.00 Mostly Cloudy BKN085 BKN250 78.1 73 78.1 75.9 85% 81 30.07 1018.4
19 06:59 NE 6 9.00 Mostly Cloudy BKN085 BKN250 78.1 73 85% 81 30.05 1017.5
19 05:59 NE 8 10.00 Mostly Cloudy FEW085 SCT140 BKN250 77 71.1 82% 79 30.02 1016.5
19 04:59 Calm 4.00 Fog/Mist FEW015 SCT120 BKN250 75.9 75 97% 75 30.01 1016.1
19 03:59 Calm 4.00 Fog/Mist FEW019 SCT026 BKN070 75.9 75 97% 75 29.99 1015.4
19 02:59 SW 6 2.00 Fog/Mist OVC004 75.9 75 97% 75 29.99 1015.7
19 01:59 S 5 3.00 Fog/Mist BKN004 OVC100 75.9 75 78.1 75.9 97% 75 29.99 1015.5 0.04
19 00:59 SW 6 5.00 Fog/Mist SCT004 BKN070 OVC100 75.9 75 97% 75 30 1015.9
18 23:59 SW 3 7.00 Mostly Cloudy FEW065 BKN080 BKN220 75.9 73.9 94% 75 30 1015.8
18 22:59 SW 5 7.00 Overcast FEW033 BKN060 OVC080 75.9 75 97% 75 29.99 1015.4 0.04
18 21:59 SW 3 7.00 Overcast FEW033 BKN060 OVC080 77 75 94% 78 29.98 1015.3
18 20:59 Calm 7.00 Light Rain SCT034 BKN044 OVC050 77 75 94% 78 29.97 1014.8 0.04
18 19:59 Calm 9.00 Overcast FEW006 BKN027 OVC090 77 75 82.9 77 94% 78 29.95 1014.1 0.45
18 18:59 SE 6 7.00 Thunderstorm BKN031CB BKN075 OVC090 78.1 75 90% 81 29.91 1012.8 0.02
18 17:59 NE 9 3.00 Thunderstorm Rain BKN021CB OVC026 79 75.9 90% 83 29.9 1012.6 0.03
18 16:59 E 7 5.00 Thunderstorm Fog/Mist BKN021CB OVC026 80.1 77 90% 86 29.9 1012.6 0.4
18 15:59 Calm 5.00 Thunderstorm BKN014CB OVC070 79 75 88% 83 29.92 1013.0 0.4
18 14:59 NW 6 9.00 Thunderstorm BKN021CB OVC038 82 73.9 77% 88 29.93 1013.6
18 13:59 N 7 9.00 Overcast OVC026 82.9 73.9 84.9 75.9 74% 89 29.94 1013.9
18 12:59 Vrbl 3 9.00 Mostly Cloudy BKN060 BKN180 BKN250 84 75 74% 92 29.94 1013.9
18 11:59 W 6 9.00 Mostly Cloudy SCT018 BKN120 BKN250 82.9 75 77% 90 29.95 1014.2
18 10:59 W 10 10.00 Mostly Cloudy BKN014 BKN080 82 75 79% 89 29.96 1014.4
18 09:59 SW 12 10.00 Mostly Cloudy FEW014 SCT095 BKN180 BKN250 80.1 73.9 82% 85 29.96 1014.5
18 08:59 Vrbl 5 10.00 Mostly Cloudy FEW050 BKN180 BKN250 78.1 73 85% 81 29.96 1014.5
18 07:59 SW 7 10.00 Mostly Cloudy FEW050 BKN180 BKN250 77 73 78.1 75 88% 78 29.95 1014.3 0.02
18 06:59 SW 8 10.00 Mostly Cloudy SCT050 BKN140 BKN250 75 72 90% 74 29.93 1013.6
18 05:59 SW 8 10.00 Overcast FEW010 SCT050 BKN150 OVC250 75 72 90% 74 29.94 1013.7
18 04:59 S 8 10.00 Mostly Cloudy FEW010 SCT050 BKN220 75 72 90% 74 29.9 1012.6 0.02
18 03:59 SW 9 10.00 Mostly Cloudy FEW050 SCT110 BKN240 75 72 90% 74 29.88 1011.7
18 02:59 S 3 10.00 Light Rain FEW050 SCT100 BKN120 75 73 94% 73 29.88 1011.9 0.02
18 01:59 W 9 10.00 Mostly Cloudy FEW050 SCT110 BKN160 78.1 72 82 78.1 82% 80 29.92 1013.3
18 00:59 SW 9 10.00 Mostly Cloudy FEW015 SCT060 BKN220 79 72 79% 82 29.91 1012.7
17 23:59 SW 12 10.00 Mostly Cloudy FEW016 SCT045 BKN220 80.1 75 85% 85 29.91 1012.8
17 22:59 SW 14 9.00 Mostly Cloudy FEW016 SCT040 BKN250 81 77 88% 88 29.92 1013.1
17 21:59 S 17 G 28 10.00 Mostly Cloudy FEW016 SCT060 BKN210 82 75.9 82% 89 29.91 1012.9
17 20:59 SW 12 10.00 Mostly Cloudy FEW045 SCT150 BKN250 82 75.9 82% 89 29.9 1012.4
17 19:59 S 12 G 22 10.00 Mostly Cloudy FEW045 SCT060 BKN170 81 75 95 75.9 82% 87 29.87 1011.4 0.37
17 18:59 SW 15 G 29 10.00 Mostly Cloudy FEW050 SCT070 BKN180 84 75.9 77% 93 29.87 1011.6
17 17:59 S 9 8.00 Rain Fog/Mist FEW043 SCT055 BKN110 82.9 79 88% 94 29.87 1011.4 0.05
17 16:59 SW 23 G 54 1.00 Thunderstorm Rain Fog/Mist and Breezy BKN026CB OVC048 75.9 71.1 85% 76 29.91 1012.6 0.32 0.32
17 15:59 S 14 G 21 10.00 Mostly Cloudy SCT041 BKN250 93.9 78.1 60% 110 29.87 1011.5
17 14:59 S 13 G 24 10.00 Mostly Cloudy FEW040 BKN250 93.9 75.9 56% 107 29.9 1012.6
17 13:59 SW 13 G 22 10.00 Mostly Cloudy SCT040 BKN250 93 75.9 93.9 82 58% 106 29.91 1012.7
17 12:59 SW 12 G 23 10.00 Mostly Cloudy FEW040 BKN250 93 75 56% 104 29.93 1013.5
17 11:59 SW 12 10.00 Mostly Cloudy FEW040 BKN250 91 75 59% 102 29.94 1014.0
17 10:59 SW 8 9.00 Mostly Cloudy BKN250 89.1 75 63% 99 29.95 1014.2
17 09:59 SW 14 G 22 9.00 Mostly Cloudy BKN250 87.1 75 67% 97 29.95 1014.3
17 08:59 SW 15 G 22 9.00 Mostly Cloudy BKN250 84 73.9 72% 91 29.96 1014.5
17 07:59 SW 15 9.00 Mostly Cloudy BKN250 82 73.9 84.9 81 77% 88 29.95 1014.2
17 06:59 SW 14 G 22 8.00 Mostly Cloudy SCT120 BKN250 81 73 77% 86 29.93 1013.6
17 05:59 SW 12 10.00 Mostly Cloudy SCT180 BKN250 81 73 77% 86 29.91 1013.0
17 04:59 SW 12 10.00 Partly Cloudy FEW040 SCT120 SCT250 82 73 74% 87 29.9 1012.5
17 03:59 SW 9 9.00 Mostly Cloudy FEW040 SCT120 BKN250 82.9 73.9 74% 89 29.89 1012.1
17 02:59 SW 13 G 20 9.00 Fair CLR 84 75.9 77% 93 29.89 1012.2
17 01:59 SW 13 8.00 A Few Clouds FEW250 84.9 77 91 84.9 77% 95 29.91 1012.7
17 00:59 SW 12 G 22 8.00 A Few Clouds FEW250 86 78.1 77% 98 29.91 1012.8
16 23:59 SW 14 G 24 8.00 A Few Clouds FEW250 87.1 79 77% 101 29.91 1012.8
16 22:59 S 10 8.00 A Few Clouds FEW040 FEW250 87.1 79 77% 101 29.91 1012.6
16 21:59 S 9 8.00 Partly Cloudy FEW040 SCT250 88 77 70% 100 29.9 1012.5
16 20:59 S 9 9.00 Partly Cloudy FEW040 SCT250 89.1 75.9 65% 100 29.89 1012.2
16 19:59 S 12 G 21 7.00 Mostly Cloudy FEW040 BKN250 91 75.9 96.1 91 61% 103 29.89 1012.0
16 18:59 SW 13 8.00 Mostly Cloudy FEW040 BKN250 93 75.9 58% 106 29.87 1011.5
16 17:59 SW 16 G 24 8.00 Partly Cloudy FEW040 SCT250 93.9 75.9 56% 107 29.87 1011.3
16 16:59 SW 13 G 23 8.00 Partly Cloudy FEW040 SCT250 95 75.9 54% 108 29.87 1011.5
16 15:59 SW 14 G 24 7.00 Partly Cloudy FEW040 SCT250 95 75.9 54% 108 29.87 1011.5
16 14:59 SW 15 7.00 Mostly Cloudy FEW040 BKN200 95 77 56% 110 29.89 1012.2
16 13:59 SW 15 G 25 7.00 Mostly Cloudy FEW040 BKN200 93.9 78.1 95 81 60% 110 29.91 1012.7
16 12:59 SW 9 G 22 7.00 Mostly Cloudy BKN200 93.9 78.1 60% 110 29.92 1013.0
16 11:59 SW 10 7.00 Mostly Cloudy BKN200 91 77 64% 105 29.93 1013.5
Date Time (edt) Wind (mph) Vis. (mi.) Weather Sky Cond. Air Dwpt Max. Min. Relative Humidity Wind Chill (°F) Heat Index (°F) altimeter (in) sea level (mb) 1 hr 3 hr 6 hr
6 hour
Temperature (ºF) Pressure Precipitation (in)